CAPE
0 0 0 0 0 12 18 50 19 207 246 19 0 128 640 810 651 287 184 158 74 4 11 153 158 39 0 0 0 135 272 366 530 614 548 778 880 1095 1118 1197 1264 1211 1306 1352
0 0 0 0 0 0 0 1 0 0 0 0 0 0 434 693 405 549 357 196 116 4 101 233 214 169 0 0 0 0 259 468 429 378 566 768 1017 1046 972 894 1443 1205 1290 1124
0 0 0 0 0 0 0 7 0 0 0 0 30 69 138 327 308 335 284 381 230 38 73 286 281 213 111 0 0 65 305 447 611 584 884 1322 1349 1472 1346 1275 1266 1263 1515 1411
0 0 0 0 0 0 0 4 0 0 0 31 34 201 360 236 361 444 464 388 521 277 118 166 294 290 220 53 1 120 356 486 637 869 840 950 662 619 733 977 1018 1432 1549 1496
0 0 0 0 0 0 5 0 0 0 0 0 0 51 164 300 296 425 355 500 523 404 328 236 268 287 222 230 117 57 397 613 602 902 957 933 839 594 749 714 1206 1350 1566 1519
0 0 0 0 0 0 0 0 0 0 0 0 0 21 7 34 87 84 95 172 503 586 561 409 335 311 276 226 288 286 404 779 963 1086 1284 1155 875 848 786 863 1033 1026 1134 1384
0 0 0 0 3 0 0 0 0 0 0 0 0 0 7 0 0 12 108 168 113 563 562 620 598 445 335 244 257 340 455 963 976 891 1067 1245 1319 1316 1030 830 545 841 960 1067
0 0 0 0 0 0 0 0 0 0 0 0 0 1 0 0 0 54 135 227 199 259 672 660 520 600 464 383 342 472 499 880 1055 963 973 1158 1358 1130 1019 770 352 794 884 1074
1 0 0 0 0 0 0 0 0 0 0 0 0 0 0 0 0 25 116 192 393 312 334 739 657 642 540 488 545 584 717 971 1066 1014 1042 1210 1361 1281 703 475 867 798 708 954
0 0 0 0 0 0 0 0 0 0 0 0 0 0 0 0 0 6 46 87 289 567 374 695 955 954 623 595 598 714 821 965 1117 992 961 1064 1226 1325 1201 960 857 822 521 1037
0 0 0 0 0 0 0 0 0 0 0 0 0 0 0 0 2 2 17 28 77 244 533 808 1089 1012 862 730 719 649 775 914 1149 1049 851 894 966 1056 1194 1013 925 841 890 1070
0 0 0 0 0 0 0 0 0 0 0 0 0 0 0 0 2 3 19 4 4 17 133 151 262 703 926 733 743 699 663 695 879 1038 1060 1013 1042 1042 908 993 790 771 950 936
0 0 0 0 0 0 0 0 0 0 0 0 0 0 0 6 6 12 8 1 0 1 1 1 35 61 107 230 571 736 737 697 683 763 786 903 983 1050 982 734 914 801 889 972
0 0 0 0 0 0 0 0 0 0 0 1 0 0 1 7 5 14 3 2 0 0 0 0 0 1 0 2 38 121 500 607 643 739 769 701 659 710 745 700 685 869 966 955
0 0 0 0 0 0 0 0 0 0 0 0 0 0 0 3 2 3 9 4 4 1 0 0 0 0 0 0 2 5 9 193 574 584 729 816 904 827 712 740 575 665 912 1035
0 0 0 0 0 0 0 0 0 0 0 0 0 0 0 2 4 1 0 0 1 2 3 2 0 0 0 0 0 0 5 5 22 528 789 740 880 909 1025 1071 981 795 830 1068
0 0 0 0 0 0 0 0 0 0 0 0 0 0 0 0 0 0 0 0 0 0 0 0 1 0 0 0 0 0 0 0 4 15 586 717 842 843 961 1017 1109 1143 992 829
0 0 0 0 0 0 0 0 0 0 0 0 0 0 0 0 0 0 0 0 0 0 0 0 0 0 0 0 0 0 0 0 0 0 1 2 110 625 956 985 1065 1045 1083 1050
0 0 0 0 0 0 0 0 0 0 0 0 0 0 0 0 0 1 0 0 0 0 0 0 0 0 0 0 0 0 0 0 0 0 0 0 3 4 126 879 1112 1206 1078 1115
0 0 0 0 0 0 0 0 0 0 0 0 0 0 0 0 0 0 0 0 0 0 0 0 0 0 0 0 0 0 0 0 0 0 0 0 0 4 3 67 623 917 1220 1107
0 0 0 0 0 0 0 0 0 0 0 0 0 0 0 0 0 0 0 0 0 0 0 0 0 0 0 0 0 0 0 0 0 0 0 0 0 0 2 1 4 469 953 1160
0 0 0 0 0 0 0 0 0 0 0 0 0 0 0 0 0 0 0 0 0 0 0 0 0 0 0 0 0 0 0 0 0 0 0 0 0 0 0 2 4 3 148 587
0 0 1 0 2 0 0 0 0 0 0 0 0 0 0 0 0 0 0 0 0 0 0 0 0 0 0 0 0 0 0 0 0 0 0 0 0 0 0 0 2 4 7 85
0 0 0 0 0 0 0 0 0 0 0 0 0 0 0 0 0 0 0 0 0 0 0 0 0 0 0 0 0 0 0 0 0 0 0 0 0 0 0 0 0 0 3 7
0 0 0 0 0 0 0 0 0 0 0 0 0 0 0 0 0 0 0 0 0 0 0 2 6 9 9 8 3 0 0 0 0 0 0 0 0 0 0 0 0 0 0 0
0 0 0 0 0 0 0 0 0 0 0 0 0 0 0 1 2 1 1 1 0 0 2 5 8 5 9 7 9 11 7 3 1 5 0 0 0 0 0 0 0 0 0 0
CIN
0 0 0 0 0 -11 -2 -5 -3 -1 -7 -18 0 -14 -7 0 -5 -14 -1 -3 -5 -14 -2 -2 -1 -9 0 0 0 -34 -23 -20 -12 -7 -4 -2 -3 -1 -1 0 0 -2 -1 -2
0 0 0 0 0 0 0 -2 0 0 0 0 0 0 -14 -20 -21 -8 -13 -7 -2 -37 -9 -1 -3 -4 0 0 0 0 -24 -17 -25 -13 -1 0 -1 -1 -4 -13 -1 -1 -1 -4
0 0 0 0 0 0 0 -3 0 0 0 0 -30 -30 -10 -9 -37 -5 -27 -4 -3 -14 -9 -2 -2 -7 -4 0 0 -59 -33 -16 -17 0 -1 -1 -1 -1 0 -1 -2 -1 0 0
0 0 0 0 0 0 0 -1 0 0 0 -3 -28 -4 0 -9 -18 0 -7 -8 -1 -3 -7 -2 -1 -3 -8 -17 -7 -42 -38 -23 -20 -10 -1 -2 -2 -1 -1 -1 -2 -1 -1 0
0 0 0 0 0 0 -3 0 0 0 0 0 0 -9 -17 -22 -16 -14 -2 -6 -6 -3 -3 -2 -2 -2 -6 -2 -20 -34 -38 -28 -19 -17 -6 -3 -6 -2 -2 -2 -2 -1 -1 0
0 0 0 0 0 0 0 0 0 0 0 0 0 -6 -33 -35 -69 -60 -67 -45 -12 -5 -3 -2 -2 -4 -3 -3 -12 -16 -33 -44 -29 -16 -16 -7 -2 -3 -2 -8 -3 -2 -1 -2
0 0 0 0 -2 0 0 0 0 0 0 0 0 0 -3 0 0 -145 -118 -129 -130 -48 -49 -3 -2 -1 -2 -6 -16 -31 -32 -38 -44 -40 -22 -13 -8 -4 -1 -2 -17 -1 -2 -1
0 0 0 0 0 0 0 0 0 0 0 0 0 -2 0 0 0 -132 -124 -120 -157 -65 -9 -43 -25 -1 -15 -2 -16 -23 -38 -59 -52 -52 -46 -29 -10 -2 -1 -1 -3 -4 -3 -1
-2 0 0 0 0 0 0 0 0 0 0 0 0 0 0 0 0 -201 -178 -186 -118 -136 -51 -10 -24 -9 -3 -15 -13 -33 -36 -55 -61 -62 -60 -47 -32 -22 -1 -1 -1 -2 -1 -1
0 0 0 0 0 0 0 0 0 0 0 0 0 0 0 0 0 -114 -251 -261 -183 -89 -138 -60 -3 -3 -6 -2 -7 -27 -37 -42 -60 -67 -60 -57 -51 -39 -33 -8 -2 -2 -2 -3
0 0 0 0 0 0 0 0 0 0 0 0 0 0 0 0 -1 0 -282 -334 -312 -235 -128 -25 -1 -5 -2 -1 -3 -2 -17 -34 -45 -52 -55 -56 -51 -54 -54 -48 -28 -16 -4 -1
0 0 0 0 0 0 0 0 0 0 0 0 0 0 0 0 0 -1 -211 0 0 -433 -254 -256 -243 -55 -1 -12 -1 -2 -5 -14 -32 -31 -59 -59 -57 -45 -45 -65 -53 -45 -20 -11
0 0 0 0 0 0 0 0 0 0 0 0 0 0 0 -1 -1 0 0 0 0 0 0 0 -426 -315 -262 -151 -34 -2 -3 -3 -2 -17 -58 -71 -56 -52 -90 -65 -66 -51 -41 -31
0 0 0 0 0 0 0 0 0 0 0 -3 0 0 -1 -2 -2 0 -2 -3 0 0 0 0 0 0 0 -100 -285 -175 -34 -3 -2 -2 -20 -77 -117 -116 -120 -123 -64 -50 -51 -47
0 0 0 0 0 0 0 0 0 0 0 0 0 0 0 -1 -1 -1 -1 -1 -1 -1 0 0 0 0 0 0 0 0 -11 -105 -43 -27 -21 -29 -49 -74 -104 -123 -135 -78 -49 -48
0 0 0 0 0 0 0 0 0 0 0 0 0 0 0 0 -1 -1 0 -1 -1 0 -1 -1 0 0 0 0 0 0 0 0 -215 -23 -22 -26 -20 -29 -42 -59 -80 -113 -76 -51
0 0 0 0 0 0 0 0 0 0 0 0 0 0 0 0 0 0 0 0 0 0 0 -1 -1 0 0 0 0 0 0 0 0 -168 -23 -12 -15 -30 -33 -48 -43 -52 -85 -82
0 0 0 0 0 0 0 0 0 0 0 0 0 0 0 0 0 0 0 0 0 0 0 0 0 0 0 0 0 0 0 0 0 0 0 0 -158 -26 -6 -14 -24 -35 -39 -40
0 0 0 0 0 0 0 0 0 0 0 0 0 0 0 0 0 0 0 0 0 0 0 0 0 0 0 0 0 0 0 0 0 0 0 0 0 0 -145 -1 -1 -1 -8 -12
0 0 0 0 0 0 0 0 0 0 0 0 0 0 0 0 0 0 0 0 0 0 0 0 0 0 0 0 0 0 0 0 0 0 0 0 0 0 0 -170 -19 -5 0 -1
0 0 0 0 0 0 0 0 0 0 0 0 0 0 0 0 0 0 0 0 0 0 0 0 0 0 0 0 0 0 0 0 0 0 0 0 0 0 0 0 -163 -41 0 0
0 0 0 0 0 0 0 0 0 0 0 0 0 0 0 0 0 0 0 0 0 0 0 0 0 0 0 0 0 0 0 0 0 0 0 0 0 0 0 0 0 -18 -75 -3
0 0 0 0 -2 0 0 0 0 0 0 0 0 0 0 0 0 0 0 0 0 0 0 0 0 0 0 0 0 0 0 0 0 0 0 0 0 0 0 0 0 0 0 -93
0 0 0 0 0 0 0 0 0 0 0 0 0 0 0 0 0 0 0 0 0 0 0 0 0 0 0 0 0 0 0 0 0 0 0 0 0 0 0 0 0 0 0 0
0 0 0 0 0 0 0 0 0 0 0 0 0 0 0 0 0 -1 0 0 0 0 0 -1 -1 0 0 -2 -2 0 0 0 0 0 0 0 0 0 0 0 0 0 0 -1
0 0 0 0 0 0 0 0 0 0 0 0 0 0 0 -1 -1 0 -1 -1 -1 -1 -1 0 0 -1 0 -1 -1 -2 -2 -2 -1 -1 0 0 0 0 0 0 0 0 0 0
Wind_Speed
18 20 23 20 24 21 15 15 10 7 9 12 10 6 4 1 15 0 16 17 24 28 26 12 7 3 7 20 27 23 22 13 25 25 22 24 23 21 21 21 20 20 20 19
18 26 20 19 19 19 17 12 8 8 11 18 13 11 5 4 13 7 23 10 32 30 27 30 11 5 9 10 27 26 24 13 26 27 26 23 21 20 20 22 21 21 20 20
22 21 17 20 20 20 19 15 13 12 14 17 9 11 13 9 7 11 17 29 26 31 31 27 29 4 3 4 15 25 24 17 23 27 22 16 14 17 20 21 21 21 21 21
24 16 19 20 21 22 19 20 15 15 17 17 26 12 14 16 19 16 17 20 32 27 36 27 26 23 7 5 5 15 24 25 25 22 16 26 23 21 20 21 21 20 22 21
21 20 20 20 20 21 20 18 20 19 22 20 23 21 13 10 14 17 21 15 27 30 19 26 26 22 17 14 10 5 15 27 27 17 27 27 27 20 18 21 17 21 21 21
17 20 20 20 18 20 14 17 18 20 22 26 18 26 15 15 15 15 18 22 6 19 12 17 19 17 30 15 14 8 8 17 29 16 16 29 27 26 22 21 20 22 22 22
14 16 17 20 21 21 19 17 20 23 24 24 16 21 11 12 14 16 18 20 25 9 11 13 17 22 24 25 12 9 8 17 19 5 4 31 30 28 26 22 25 21 22 22
19 21 20 20 23 23 24 22 23 25 23 18 16 20 15 10 11 13 15 17 17 8 10 14 21 16 19 26 14 8 7 11 20 10 20 33 30 28 29 27 25 21 23 23
22 19 17 17 19 21 23 29 22 25 24 21 15 10 8 11 12 13 14 15 15 16 20 7 12 16 16 18 15 16 12 20 25 22 28 32 29 30 29 29 27 27 25 24
18 18 20 18 19 20 23 24 26 26 25 26 19 18 16 16 15 14 14 14 14 16 13 17 6 8 7 9 16 22 21 20 24 26 26 31 29 27 31 30 31 30 28 28
19 22 20 20 22 22 22 25 27 26 25 30 22 21 16 15 14 13 13 14 14 14 11 11 12 17 22 14 13 15 16 25 24 24 25 29 30 29 25 26 31 33 31 29
18 21 20 20 19 20 24 23 26 30 27 25 26 21 14 12 12 11 12 12 13 13 12 11 11 16 15 16 25 15 21 23 26 26 25 27 30 30 29 26 24 28 31 31
17 20 21 21 21 22 25 24 25 28 26 28 29 21 11 11 10 11 11 11 12 12 12 12 12 13 14 14 20 27 21 22 23 23 27 28 28 29 31 32 28 26 27 29
17 17 22 23 20 18 22 23 25 28 33 26 26 14 12 12 11 11 11 11 11 12 13 13 14 15 16 18 19 19 21 22 22 23 22 27 30 30 30 31 32 30 27 27
18 20 18 17 17 18 21 22 22 24 26 27 17 17 14 12 12 12 12 12 12 13 14 15 16 16 18 18 19 20 22 23 25 26 26 25 25 27 31 30 29 30 30 28
17 21 21 23 22 22 25 23 22 21 20 19 16 16 13 13 13 14 15 15 15 15 16 17 17 18 19 20 21 21 22 24 26 28 31 31 31 29 27 28 30 31 33 31
20 20 23 25 23 25 31 29 25 21 20 19 22 17 14 15 16 17 17 17 18 18 19 19 20 20 21 22 22 22 23 24 24 25 27 29 33 34 33 32 31 30 31 32
18 21 21 24 22 29 20 19 22 22 19 20 18 17 17 18 18 16 17 19 21 22 23 23 24 24 24 24 24 24 23 23 23 24 26 27 29 30 33 33 33 33 32 33
19 19 21 23 26 21 22 21 20 21 22 21 20 19 19 20 20 20 19 22 24 26 26 27 28 28 28 27 27 26 26 25 24 26 27 29 30 31 32 31 32 33 32 33
16 19 21 20 26 28 17 16 16 17 25 18 20 20 21 22 26 18 23 25 27 28 29 31 32 32 31 31 30 30 29 28 28 28 29 29 30 32 33 32 34 34 33 32
14 18 23 24 25 23 17 14 13 24 21 13 16 18 21 24 25 27 27 28 29 30 32 33 33 34 34 34 34 34 33 31 30 31 31 31 30 31 33 33 36 35 35 36
16 18 19 21 26 29 11 12 18 13 12 14 17 20 23 24 26 29 30 32 33 34 34 34 36 36 36 36 37 38 37 35 35 34 33 32 32 32 32 34 34 37 37 35
18 18 18 18 19 15 9 16 13 17 19 19 20 20 23 25 28 30 32 33 34 36 36 36 38 39 39 39 39 41 41 40 39 38 37 36 34 33 33 33 34 35 34 35
17 18 18 18 14 12 11 12 12 13 14 14 16 17 18 20 23 25 27 29 31 32 35 37 39 40 41 41 42 43 43 43 43 43 41 39 38 37 35 34 34 33 34 34
21 14 21 24 20 16 17 15 13 12 13 15 16 17 18 20 22 25 28 30 32 33 34 35 37 39 41 42 44 44 44 44 46 45 44 43 41 40 39 37 36 36 35 34
20 22 21 20 20 18 17 10 12 14 15 18 19 20 20 22 24 26 27 29 32 35 36 37 37 39 41 42 44 44 43 43 45 46 46 44 43 43 42 41 42 39 38 39
Wind_Direction
238 241 237 237 235 255 245 248 250 265 266 269 274 293 309 143 117 352 131 140 149 157 150 136 239 239 252 233 217 226 227 242 216 150 138 159 180 198 194 190 194 185 182 192
237 239 240 238 241 242 244 237 241 260 270 250 255 259 287 259 250 122 143 240 170 162 155 162 155 240 251 240 219 221 226 244 186 162 168 202 219 217 208 193 192 180 176 184
238 244 240 237 238 238 240 240 246 252 254 250 254 264 256 265 275 265 132 183 183 168 169 161 165 200 198 201 238 223 225 238 226 209 223 251 263 240 216 208 189 186 183 178
243 254 234 234 238 237 236 246 250 249 245 251 232 267 263 261 254 256 253 224 209 165 187 167 167 159 176 208 198 244 230 228 228 236 254 191 194 228 233 218 209 205 188 186
245 237 231 233 237 238 248 243 247 249 247 252 242 249 270 273 257 256 252 268 183 189 162 169 167 162 160 156 154 197 246 229 227 252 227 217 213 245 248 228 246 212 207 202
256 239 236 238 241 239 256 241 244 248 248 248 250 245 263 263 264 265 266 264 255 176 166 167 166 166 174 164 163 167 232 249 230 258 244 206 225 228 239 236 239 219 207 203
240 235 247 247 238 240 240 230 233 240 244 251 244 250 273 270 276 273 269 273 259 180 174 169 169 171 171 170 170 175 185 252 251 199 227 202 217 228 231 242 226 241 223 217
230 235 241 249 242 240 234 233 237 242 238 239 252 252 257 278 293 290 286 289 284 268 172 176 171 174 176 173 174 194 208 249 253 249 172 222 232 232 224 232 238 254 241 228
236 247 249 251 249 247 231 237 258 253 243 246 236 260 260 271 289 300 299 294 291 279 266 198 175 168 175 178 181 176 246 257 251 254 248 237 244 236 235 236 244 241 246 248
251 246 248 251 248 250 245 242 242 247 239 240 247 243 252 260 273 292 301 301 300 307 285 261 213 194 195 202 243 250 253 255 255 253 253 246 249 253 240 242 242 239 246 242
254 253 246 245 247 244 244 242 245 253 255 241 246 249 264 264 273 286 301 304 315 320 322 278 279 261 251 255 255 251 252 254 257 257 256 252 251 254 262 260 248 243 242 246
261 256 242 247 253 254 251 253 247 245 247 254 252 257 266 266 274 290 305 314 325 326 323 310 299 266 265 265 255 261 259 257 257 258 259 257 254 256 256 263 267 260 253 249
264 253 245 248 252 253 249 252 253 253 260 249 250 258 262 263 276 288 298 317 324 329 330 318 301 301 296 288 269 257 265 264 262 262 260 260 260 260 259 257 264 267 265 261
272 264 257 251 253 254 249 253 255 252 250 255 256 246 250 258 268 284 295 310 323 326 329 326 325 315 306 293 282 278 276 272 271 267 265 263 262 262 263 263 261 264 267 267
268 259 263 269 270 265 256 256 258 253 256 254 246 243 251 263 271 282 291 300 309 315 319 322 322 320 314 308 299 286 281 275 273 269 268 268 269 268 264 265 268 265 265 269
276 261 260 263 270 267 259 258 260 260 259 255 252 254 264 268 274 279 287 293 298 306 309 311 313 317 317 315 310 301 292 283 276 270 264 266 267 269 271 270 269 268 265 266
271 265 262 263 265 265 258 255 256 259 259 257 254 256 261 266 274 279 283 288 293 299 303 304 307 309 310 311 313 313 302 299 291 282 275 275 271 268 269 269 270 270 269 267
275 264 268 262 261 256 264 269 260 258 260 262 264 266 268 272 278 282 292 289 291 294 296 298 301 302 304 307 308 309 310 305 302 296 287 282 282 278 271 269 269 270 270 269
271 267 266 262 257 271 266 266 261 252 257 263 262 267 273 277 278 275 291 293 292 293 294 294 296 298 298 300 302 303 305 305 304 297 293 288 284 283 279 277 273 272 270 270
278 271 267 267 261 262 274 273 274 273 261 268 267 269 272 276 271 273 290 294 293 293 293 293 293 293 294 296 298 297 297 299 297 300 296 292 292 289 279 281 275 276 274 272
278 273 265 266 268 276 283 280 278 261 267 277 276 278 279 274 279 287 293 294 295 295 293 293 292 291 290 292 294 290 291 292 296 297 299 296 295 291 282 281 279 279 277 274
279 278 275 273 269 267 284 281 271 285 289 289 288 287 286 287 288 290 293 293 294 294 295 294 291 289 290 290 288 287 286 290 290 292 293 294 295 294 292 286 285 280 279 281
283 284 284 280 284 295 282 291 287 287 288 291 290 293 292 292 293 295 295 297 296 295 295 296 294 291 289 288 286 284 284 286 287 286 287 289 292 293 292 292 287 284 285 282
288 285 285 288 286 289 291 297 298 299 300 304 305 305 306 304 305 306 307 309 307 304 300 298 296 293 291 290 286 283 284 284 283 280 282 284 285 286 290 289 288 287 286 282
276 292 272 269 282 284 282 287 294 297 300 304 306 305 305 308 310 312 311 311 310 309 308 307 301 298 295 293 289 287 284 282 279 277 278 279 282 282 283 285 284 284 285 285
287 280 282 289 282 281 294 286 292 290 296 295 293 294 301 307 306 312 315 321 318 312 308 306 305 303 298 295 290 287 285 282 280 275 274 276 277 278 280 280 281 281 282 284